TimeEDT,TemperatureF,Dew PointF,Humidity,Sea Level PressureIn,VisibilityMPH,Wind Direction,Wind SpeedMPH,Gust SpeedMPH,PrecipitationIn,Events,Conditions,WindDirDegrees,DateUTC
12:53 AM,71.1,63.0,75,29.91,10.0,Calm,Calm,-,N/A,,Mostly Cloudy,0,2013-07-12 04:53:00
1:53 AM,73.9,60.1,62,29.94,10.0,Calm,Calm,-,N/A,,Scattered Clouds,0,2013-07-12 05:53:00
2:53 AM,70.0,63.0,78,29.94,6.0,Calm,Calm,-,0.03,Rain,Light Rain,0,2013-07-12 06:53:00
3:53 AM,69.1,63.0,81,29.94,6.0,Calm,Calm,-,0.05,,Haze,0,2013-07-12 07:53:00
4:53 AM,68.0,62.1,81,29.95,5.0,Calm,Calm,-,0.04,Rain,Light Rain,0,2013-07-12 08:53:00
5:53 AM,68.0,61.0,78,29.95,9.0,Calm,Calm,-,0.04,,Overcast,0,2013-07-12 09:53:00
6:53 AM,68.0,62.1,81,29.95,6.0,Calm,Calm,-,0.03,Rain,Light Rain,0,2013-07-12 10:53:00
7:53 AM,69.1,61.0,75,29.97,9.0,Calm,Calm,-,0.01,Rain,Light Rain,0,2013-07-12 11:53:00
8:53 AM,71.1,62.1,73,29.98,10.0,Calm,Calm,-,0.00,,Overcast,0,2013-07-12 12:53:00
9:53 AM,72.0,62.1,71,29.98,10.0,Variable,3.5,-,N/A,,Overcast,0,2013-07-12 13:53:00
10:53 AM,72.0,62.1,71,29.99,10.0,Variable,4.6,-,N/A,,Overcast,0,2013-07-12 14:53:00
11:53 AM,73.9,63.0,68,30.01,10.0,Variable,3.5,-,0.00,,Overcast,0,2013-07-12 15:53:00
12:15 PM,73.4,62.6,69,30.05,10.0,Variable,3.5,-,N/A,,Mostly Cloudy,0,2013-07-12 16:15:00
12:25 PM,73.4,62.6,69,30.05,10.0,NNE,4.6,-,N/A,,Overcast,30,2013-07-12 16:25:00
12:53 PM,73.0,63.0,71,30.02,10.0,Calm,Calm,-,N/A,,Overcast,0,2013-07-12 16:53:00
1:35 PM,73.4,62.6,69,30.03,10.0,Variable,3.5,-,N/A,,Overcast,0,2013-07-12 17:35:00
1:53 PM,73.9,63.0,68,30.01,10.0,Variable,3.5,-,N/A,,Overcast,0,2013-07-12 17:53:00
2:53 PM,75.0,63.0,66,30.01,10.0,Variable,4.6,-,N/A,,Scattered Clouds,0,2013-07-12 18:53:00
3:53 PM,73.9,64.0,71,30.02,10.0,Calm,Calm,-,0.00,Rain,Light Rain,0,2013-07-12 19:53:00
4:53 PM,73.9,64.0,71,30.01,10.0,Calm,Calm,-,0.00,,Overcast,0,2013-07-12 20:53:00
5:53 PM,75.0,64.9,71,30.01,10.0,NE,4.6,-,N/A,,Mostly Cloudy,50,2013-07-12 21:53:00
6:53 PM,75.0,66.0,73,30.01,10.0,Calm,Calm,-,N/A,,Mostly Cloudy,0,2013-07-12 22:53:00
7:53 PM,73.9,66.9,79,30.02,10.0,Calm,Calm,-,0.00,,Overcast,0,2013-07-12 23:53:00
8:53 PM,73.0,66.0,79,30.02,10.0,Calm,Calm,-,N/A,,Overcast,0,2013-07-13 00:53:00
9:34 PM,73.4,64.4,73,30.06,10.0,Calm,Calm,-,0.00,Rain,Light Rain,0,2013-07-13 01:34:00
9:53 PM,72.0,64.9,78,30.04,5.0,Calm,Calm,-,0.03,Rain,Rain,0,2013-07-13 01:53:00
10:07 PM,71.6,66.2,83,30.07,4.0,Calm,Calm,-,0.03,Rain,Light Rain,0,2013-07-13 02:07:00
10:53 PM,72.0,66.0,81,30.05,7.0,Calm,Calm,-,0.09,Rain,Light Rain,0,2013-07-13 02:53:00
11:30 PM,71.6,66.2,83,30.08,3.0,Variable,4.6,-,0.05,Rain,Light Rain,0,2013-07-13 03:30:00